This is the latest recevied weather packets stored in our database for station/object W7TRD. If no packets are shown the sender has not sent any weather packets the latest 10 day(s).
| Time | Temp. | Humidity | Pressure | Rain* | Wind** | Luminosity | Snow |
|---|---|---|---|---|---|---|---|
| 1777407699 | 13.89° C | 60% | 1024.9 hPa | 0 mm | - | 268 W/m² | - |
| 1777407399 | 13.89° C | 61% | 1025.1 hPa | 0 mm | - | 291 W/m² | - |
| 1777407094 | 13.89° C | 60% | 1024.8 hPa | 0 mm | - | 320 W/m² | - |
| 1777406789 | 14.44° C | 61% | 1024.7 hPa | 0 mm | - | 334 W/m² | - |
| 1777406485 | 13.89° C | 61% | 1024.9 hPa | 0 mm | - | 312 W/m² | - |
| 1777406180 | 14.44° C | 59% | 1024.8 hPa | 0 mm | - | 286 W/m² | - |
| 1777405875 | 15° C | 59% | 1024.9 hPa | 0 mm | - | 377 W/m² | - |
| 1777405571 | 14.44° C | 61% | 1024.8 hPa | 0 mm | - | 417 W/m² | - |
| 1777405269 | 13.89° C | 62% | 1024.9 hPa | 0 mm | - | 413 W/m² | - |
| 1777404969 | 13.89° C | 61% | 1024.9 hPa | 0 mm | - | 407 W/m² | - |
| 1777404668 | 13.89° C | 61% | 1025 hPa | 0 mm | - | 373 W/m² | - |
| 1777404365 | 14.44° C | 62% | 1025 hPa | 0 mm | - | 395 W/m² | - |
| 1777404062 | 14.44° C | 61% | 1025.1 hPa | 0 mm | - | 441 W/m² | - |
| 1777403757 | 13.89° C | 63% | 1025 hPa | 0 mm | - | 418 W/m² | - |
| 1777403455 | 13.89° C | 60% | 1024.9 hPa | 0 mm | - | 470 W/m² | - |
| 1777403150 | 13.89° C | 61% | 1025 hPa | 0 mm | - | 430 W/m² | - |
| 1777402846 | 13.89° C | 62% | 1025.1 hPa | 0 mm | - | 364 W/m² | - |
| 1777402543 | 13.33° C | 63% | 1025.1 hPa | 0 mm | - | 340 W/m² | - |
| 1777402240 | 13.89° C | 62% | 1025.1 hPa | 0 mm | - | 260 W/m² | - |
| 1777401935 | 13.33° C | 63% | 1025 hPa | 0 mm | - | 269 W/m² | - |
| 1777401634 | 13.89° C | 62% | 1025 hPa | 0 mm | - | 379 W/m² | - |
| 1777401331 | 13.33° C | 64% | 1025.2 hPa | 0 mm | - | 369 W/m² | - |
| 1777401027 | 13.33° C | 66% | 1024.9 hPa | 0 mm | - | 320 W/m² | - |
| 1777400723 | 12.78° C | 64% | 1025 hPa | 0 mm | - | 304 W/m² | - |
| 1777400421 | 12.78° C | 66% | 1025.1 hPa | 0 mm | - | 345 W/m² | - |
* Rain latest hour (hover to see other rain measurements)
** Current wind speed in m/s (hover to see current wind gust speed)